CAPE
0 0 0 0 0 0 0 0 0 0 0 4 48 131 134 565 585 1425 1632 1537 1775 1923 940 780 1721 1877 1959 1811 1631 1445 1270 1231 1298 1445 1578 1464 1431 937 628 715 630 509 435 328 272 228 188 302 243
0 0 0 0 0 0 0 0 0 0 0 0 0 104 102 60 596 1585 1752 1593 1866 1637 663 224 1567 1696 1750 1692 1596 1525 1545 1565 1565 1575 1379 1145 985 606 391 581 571 517 465 411 383 343 425 507 530
0 0 0 0 0 0 0 0 0 0 0 0 0 0 19 189 739 1133 1661 1979 1911 1175 344 437 1522 1555 1562 1550 1489 1470 1478 1403 1364 1181 1059 894 594 601 857 803 737 588 588 713 765 720 610 468 286
0 0 0 0 0 0 0 0 0 0 0 0 0 0 391 1167 1043 1286 1743 1880 1706 922 399 1050 1434 1445 1413 1339 1352 1345 1367 1371 1290 1023 658 462 426 612 884 817 790 751 925 985 973 730 429 374 273
0 0 0 0 0 0 0 0 0 0 0 0 0 21 405 1352 1842 1840 1903 1739 1421 787 480 600 1370 1376 1329 1272 1227 1238 1304 1314 1267 1106 760 428 427 600 762 817 885 1013 1020 1117 1014 725 413 288 291
0 0 0 0 0 0 0 0 0 0 0 0 9 66 579 1714 2065 2048 1897 1752 1242 777 532 438 1184 1210 1157 1191 1117 1092 1127 1179 1166 1056 852 502 408 396 493 605 689 726 676 589 560 443 326 238 227
0 0 0 0 0 0 0 0 0 0 0 0 0 0 876 1273 2073 2176 1878 1625 1404 860 422 260 261 594 1072 1089 1028 1009 1020 1045 1060 982 855 680 343 379 438 480 533 547 507 444 428 442 470 449 377
0 0 0 0 0 0 0 0 0 0 0 0 0 0 0 1376 2090 2239 1897 1783 1483 1246 766 252 102 27 17 94 1149 1095 1162 1201 1104 938 734 618 366 339 322 438 399 386 371 324 310 306 318 553 594
0 0 0 0 0 0 0 0 0 0 0 0 0 0 416 2097 1979 1945 1919 1869 1804 1464 944 329 96 58 13 1 455 1064 984 1063 1072 689 527 70 0 6 5 28 56 146 198 263 319 360 610 718 574
0 0 0 0 0 0 0 0 0 0 0 0 0 31 1015 2121 2162 1864 1652 1689 1628 1497 1154 681 305 231 99 25 110 32 253 198 150 121 53 0 10 23 15 47 108 245 288 431 560 716 775 611 330
0 0 0 0 0 0 0 0 0 0 0 0 0 5 931 1700 2367 2038 1578 1481 1454 1273 1355 939 841 632 360 171 41 33 6 59 188 222 240 111 0 7 0 2 18 54 263 336 554 617 657 580 830
0 0 0 0 0 0 0 0 0 0 0 0 0 23 1367 1549 1922 2220 1918 1498 1336 1419 1320 1328 1180 850 510 594 388 262 205 123 85 101 277 146 83 65 39 3 21 233 438 903 862 673 793 1080 920
0 0 0 0 0 0 0 0 0 0 0 0 0 87 1722 1896 1796 1906 1959 1610 1506 1627 1523 1556 1426 1173 903 1005 525 614 559 370 237 293 216 6 0 41 52 41 16 26 611 814 891 1192 1342 1357 1072
0 0 2 0 0 0 0 0 0 0 0 0 0 0 159 1925 2082 2154 2095 1950 1800 1679 1558 1576 1454 1661 1192 908 985 960 913 846 726 533 415 297 89 132 16 5 0 0 175 463 911 1872 1920 1926 1928
0 0 0 0 0 0 0 0 0 0 0 0 0 0 0 13 1743 2149 2305 2148 1896 1683 1954 1815 1701 1528 1618 1311 1237 972 933 821 817 586 745 410 317 230 131 46 88 253 492 826 2035 2049 2105 2000 1772
0 0 0 0 0 0 0 0 0 0 0 0 0 0 123 464 983 2027 2314 2318 2031 1727 1714 2022 1416 1582 1522 1837 1480 995 1085 999 665 281 205 286 228 278 400 659 749 664 1136 2161 1963 2379 1835 1891 1246
0 0 0 0 0 0 0 0 0 0 0 0 0 0 220 388 1258 1937 2316 2349 2087 1822 1801 1572 1307 1350 1468 1988 1616 1379 1418 460 238 167 363 599 360 483 637 602 863 1069 913 1525 1264 1237 1464 1517 1469
10 0 0 0 0 0 0 0 0 0 0 0 0 0 37 379 1122 2052 1988 2091 1956 1767 1581 1297 1232 1462 1864 1771 1299 533 296 155 923 1674 1668 1784 1549 1512 1490 1094 556 518 355 396 358 592 835 1118 1187
8 2 0 0 0 0 0 0 0 0 0 0 0 0 0 171 246 1526 1834 1734 1844 1765 1577 1532 1398 1703 1628 1168 252 234 299 1266 1222 1144 1115 947 966 1085 1373 540 234 240 346 455 504 791 1072 855 1293
0 4 0 0 0 0 0 0 0 0 0 0 0 0 0 51 302 1468 1891 1540 1571 1684 1586 1458 1344 1568 1157 1004 1158 1876 1817 1412 1025 650 532 532 243 507 308 481 166 122 155 195 378 416 651 546 412
0 0 0 0 0 0 0 0 0 0 0 0 0 0 0 0 770 1521 1913 1545 1555 1476 1498 1328 1426 1450 1218 1804 2361 1883 1444 996 925 680 221 207 102 115 181 99 93 54 174 149 199 111 139 72 1
0 0 0 0 0 0 0 0 0 0 0 0 0 0 0 64 908 1547 1872 1811 1506 1349 1295 1437 1446 1485 1564 1676 1978 2095 1861 1349 874 499 146 36 7 3 40 35 54 44 51 56 23 7 1 0 0
0 0 0 0 0 0 2 0 0 0 0 0 0 0 44 454 898 1640 2077 2003 1823 1480 1541 1399 1523 1669 1735 1653 1609 1643 1219 1047 749 297 0 0 1 9 28 48 18 0 0 0 0 0 0 0 0
0 0 0 0 1 0 0 0 0 0 0 0 0 0 606 879 1359 1851 2251 2104 1499 1197 983 1261 1676 1803 1915 2159 1955 1531 1179 855 49 3 0 0 18 62 64 0 0 0 0 0 0 0 0 0 0
2 0 15 0 6 0 0 0 0 0 0 0 0 0 737 1332 1881 2473 2426 2015 1804 1434 1248 1452 1585 1604 1609 1771 1435 1289 1188 296 82 7 0 56 77 11 0 0 0 0 0 0 0 0 0 0 0
8 53 118 0 0 0 0 0 0 0 0 0 0 0 958 1784 2192 2525 2382 2185 1709 1608 1562 1598 1499 1029 1206 1579 1414 844 405 77 0 15 39 7 0 0 0 0 0 0 0 0 0 0 0 0 0
40 31 81 71 12 46 17 0 0 0 0 0 0 0 1211 1969 2553 2417 2315 2053 2006 1808 1538 1201 787 677 944 947 749 299 140 0 12 53 0 0 0 0 0 0 0 0 0 0 0 0 0 1 3
46 55 83 80 0 4 27 0 0 0 0 0 0 50 1807 2596 2443 2320 2211 1925 1806 1369 992 750 842 885 789 446 148 73 83 10 0 0 0 0 0 0 0 0 0 0 0 0 0 0 1 8 2
59 156 33 74 25 58 3 0 0 0 0 0 0 373 2361 2286 2031 2078 1762 1089 931 918 725 720 634 377 190 173 167 16 0 0 0 0 0 0 0 0 0 0 0 0 0 0 0 0 0 4 7
56 132 154 220 63 30 254 48 0 0 0 0 5 1436 2509 2078 1951 1580 1122 506 421 511 426 733 369 303 137 55 0 0 0 0 0 0 0 0 0 0 0 0 0 0 1 3 0 0 0 2 6
CIN
-0 -0 -0 -0 -0 -0 -0 -0 -0 -0 -0 -13 -96 -78 -72 -57 -20 -5 -122 -170 -144 -128 -264 -287 -121 -77 -73 -71 -68 -72 -80 -88 -63 -45 -28 -22 -32 -83 -131 -117 -135 -158 -167 -178 -184 -178 -180 -159 -159
-0 -0 -0 -0 -0 -0 -0 -0 -0 -0 -0 -0 -0 -114 -84 -85 -118 -113 -115 -168 -132 -154 -310 -432 -134 -108 -86 -78 -65 -62 -48 -45 -32 -25 -34 -46 -80 -147 -187 -155 -157 -158 -156 -148 -139 -137 -110 -88 -74
-0 -0 -0 -0 -0 -0 -0 -0 -0 -0 -0 -0 -0 -0 -57 -104 -142 -141 -164 -140 -123 -196 -346 -329 -107 -116 -98 -79 -58 -57 -56 -50 -30 -45 -64 -82 -141 -151 -108 -105 -114 -116 -107 -80 -56 -53 -69 -94 -124
-0 -0 -0 -0 -0 -0 -0 -0 -0 -0 -0 -0 -0 -0 -109 -116 -127 -133 -194 -145 -128 -187 -290 -189 -99 -96 -114 -96 -62 -65 -56 -49 -38 -53 -112 -161 -165 -127 -77 -76 -65 -67 -38 -29 -30 -68 -123 -125 -141
-0 -0 -0 -0 -0 -0 -0 -0 -0 -0 -0 -0 -0 -20 -59 -101 -81 -106 -149 -143 -132 -189 -233 -272 -74 -77 -104 -104 -79 -74 -54 -43 -40 -52 -99 -165 -158 -113 -80 -65 -46 -27 -30 -25 -32 -68 -135 -175 -164
-0 -0 -0 -0 -0 -0 -0 -0 -0 -0 -0 -0 -35 -92 -46 -97 -59 -86 -108 -111 -128 -193 -227 -277 -80 -86 -99 -96 -105 -95 -66 -50 -45 -51 -80 -133 -147 -140 -111 -91 -81 -81 -85 -90 -82 -111 -157 -194 -214
-0 -0 -0 -0 -0 -0 -0 -0 -0 -0 -0 -0 -0 -0 -92 -141 -66 -76 -101 -106 -108 -157 -240 -326 -320 -187 -90 -86 -100 -79 -69 -52 -41 -47 -67 -77 -141 -133 -132 -133 -126 -119 -119 -140 -155 -153 -146 -166 -201
-0 -0 -0 -0 -0 -0 -0 -0 -0 -0 -0 -0 -0 -0 -0 -116 -91 -54 -76 -76 -83 -75 -137 -260 -346 -458 -480 -342 -45 -40 -38 -28 -26 -30 -80 -109 -164 -174 -175 -149 -148 -168 -177 -192 -192 -204 -215 -155 -161
-0 -0 -0 -0 -0 -0 -0 -0 -0 -0 -0 -0 -0 -0 -75 -97 -99 -68 -66 -55 -47 -46 -103 -196 -302 -367 -477 -31 -172 -25 -22 -14 -18 -61 -121 -231 -0 -158 -255 -349 -347 -260 -244 -238 -247 -239 -161 -140 -195
-0 -0 -0 -0 -0 -0 -0 -0 -0 -0 -0 -0 -0 -32 -119 -74 -77 -63 -85 -76 -64 -54 -76 -119 -171 -203 -267 -445 -312 -329 -161 -154 -162 -159 -215 -0 -247 -151 -134 -282 -280 -211 -204 -169 -143 -123 -119 -195 -111
-0 -0 -0 -0 -0 -0 -0 -0 -0 -0 -0 -0 -0 -6 -103 -76 -42 -47 -61 -69 -61 -56 -46 -85 -96 -132 -129 -173 -297 -268 -331 -215 -155 -156 -129 -163 -0 -117 -0 -7 -118 -224 -165 -76 -53 -44 -20 -39 -24
-0 -0 -0 -0 -0 -0 -0 -0 -0 -0 -0 -0 -0 -36 -48 -63 -35 -24 -26 -66 -72 -76 -53 -58 -61 -114 -100 -63 -110 -138 -151 -192 -195 -193 -117 -149 -121 -153 -191 -26 -246 -101 -30 -5 -1 -5 -3 -0 -5
-0 -0 -0 -0 -0 -0 -0 -0 -0 -0 -0 -0 -0 -23 -24 -25 -29 -25 -6 -26 -48 -64 -34 -41 -39 -70 -75 -41 -93 -53 -62 -82 -106 -89 -113 -39 -0 -174 -181 -227 -234 -177 -8 -0 -0 -0 -0 -0 -0
-0 -0 -0 -0 -0 -0 -0 -0 -0 -0 -0 -0 -0 -0 -16 -5 -16 -12 -29 -39 -55 -58 -50 -49 -32 -31 -48 -54 -33 -28 -18 -15 -13 -15 -30 -82 -158 -156 -217 -73 -0 -0 -132 -28 -2 -0 -0 -0 -0
-0 -0 -0 -0 -0 -0 -0 -0 -0 -0 -0 -0 -0 -0 -0 -10 -21 -18 -21 -39 -58 -70 -37 -42 -16 -40 -13 -14 -20 -19 -16 -0 -0 -0 -22 -55 -90 -108 -145 -151 -172 -55 -33 -12 -0 -0 -0 -0 -0
-0 -0 -0 -0 -0 -0 -0 -0 -0 -0 -0 -0 -0 -0 -133 -135 -73 -11 -19 -23 -38 -51 -49 -13 -40 -22 -16 -0 -2 -1 -0 -0 -4 -46 -98 -113 -148 -86 -36 -5 -10 -44 -16 -0 -0 -0 -0 -0 -62
-0 -0 -0 -0 -0 -0 -0 -0 -0 -0 -0 -0 -0 -0 -95 -72 -54 -13 -14 -18 -36 -47 -31 -51 -88 -45 -37 -0 -1 -0 -0 -50 -97 -137 -78 -72 -91 -42 -16 -23 -1 -0 -21 -44 -35 -17 -0 -0 -3
-0 -0 -0 -0 -0 -0 -0 -0 -0 -0 -0 -0 -0 -0 -64 -69 -43 -9 -35 -29 -45 -65 -55 -65 -48 -30 -2 -1 -1 -62 -97 -148 -22 -0 -0 -0 -5 -6 -5 -20 -104 -123 -117 -142 -315 -111 -45 -0 -0
-0 -0 -0 -0 -0 -0 -0 -0 -0 -0 -0 -0 -0 -0 -0 -57 -57 -31 -43 -59 -65 -70 -66 -42 -44 -23 -11 -23 -172 -129 -117 -0 -8 -8 -21 -49 -62 -73 -62 -105 -215 -231 -225 -148 -259 -35 -0 -0 -0
-0 -0 -0 -0 -0 -0 -0 -0 -0 -0 -0 -0 -0 -0 -0 -62 -76 -77 -63 -110 -106 -87 -69 -60 -51 -25 -42 -50 -1 -0 -0 -0 -19 -52 -20 -19 -38 -79 -74 -47 -114 -193 -215 -179 -136 -6 -0 -3 -0
-0 -0 -0 -0 -0 -0 -0 -0 -0 -0 -0 -0 -0 -0 -0 -0 -109 -97 -68 -124 -103 -95 -79 -96 -62 -55 -51 -1 -0 -0 -7 -25 -28 -45 -78 -120 -130 -165 -146 -166 -103 -178 -126 -186 -122 -34 -13 -44 -34
-0 -0 -0 -0 -0 -0 -0 -0 -0 -0 -0 -0 -0 -0 -0 -115 -94 -67 -89 -96 -111 -108 -106 -80 -73 -41 -27 -4 -0 -0 -0 -0 -9 -29 -38 -55 -158 -242 -269 -197 -182 -182 -157 -105 -100 -131 -18 -0 -0
-0 -0 -0 -0 -0 -0 -0 -0 -0 -0 -0 -0 -0 -0 -85 -87 -89 -66 -62 -43 -66 -133 -101 -97 -60 -23 -21 -22 -2 -0 -0 -2 -23 -110 -0 -0 -147 -236 -221 -181 -205 -0 -0 -0 -0 -0 -0 -0 -0
-0 -0 -0 -0 -0 -0 -0 -0 -0 -0 -0 -0 -0 -0 -70 -68 -49 -51 -29 -39 -99 -93 -139 -150 -41 -56 -23 -0 -0 -0 -0 -7 -153 -0 -0 -0 -231 -143 -167 -0 -0 -0 -0 -0 -0 -0 -0 -0 -0
-0 -0 -0 -0 -0 -0 -0 -0 -0 -0 -0 -0 -0 -0 -62 -38 -16 -1 -3 -41 -27 -67 -105 -164 -82 -47 -19 -5 -5 -1 -11 -146 -239 -171 -0 -159 -118 -88 -0 -0 -0 -0 -0 -0 -0 -0 -0 -0 -0
-0 -0 -0 -0 -0 -0 -0 -0 -0 -0 -0 -0 -0 -0 -27 -1 -0 -0 -16 -17 -36 -88 -107 -74 -60 -79 -51 -22 -8 -55 -96 -269 -0 -199 -155 -190 -0 -0 -0 -0 -0 -0 -0 -0 -0 -0 -0 -0 -0
-0 -0 -0 -0 -2 -0 -0 -0 -0 -0 -0 -0 -0 -0 -3 -0 -1 -0 -7 -27 -45 -88 -108 -117 -146 -161 -112 -71 -69 -143 -214 -0 -132 -224 -21 -0 -0 -0 -0 -0 -0 -0 -0 -0 -0 -0 -0 -0 -0
-0 -0 -5 -1 -0 -2 -0 -0 -0 -0 -0 -0 -0 -85 -0 -1 -0 -0 -4 -64 -85 -131 -153 -162 -149 -111 -95 -131 -231 -234 -208 -161 -0 -0 -0 -0 -0 -0 -0 -0 -0 -0 -0 -0 -0 -0 -0 -0 -0
-1 -0 -21 -3 -0 -0 -1 -0 -0 -0 -0 -0 -0 -16 -0 -0 -12 -6 -25 -152 -183 -167 -168 -116 -109 -173 -186 -149 -171 -88 -0 -0 -0 -0 -0 -0 -0 -0 -0 -0 -0 -0 -0 -0 -0 -0 -0 -0 -0
-13 -1 -0 -0 -0 -5 -0 -0 -0 -0 -0 -0 -4 -0 -0 -14 -9 -33 -144 -96 -246 -261 -275 -110 -109 -94 -145 -248 -0 -0 -0 -0 -0 -0 -0 -0 -0 -0 -0 -0 -0 -0 -0 -0 -0 -0 -0 -0 -0
Wind_Speed
nan nan nan nan nan nan nan nan nan nan nan nan nan 16 20 20 18 24 17 14 19 16 14 9 11 10 11 13 16 17 14 11 9 8 8 7 7 7 8 11 14 16 17 17 18 19 19 18 18
nan nan nan nan nan nan nan nan nan nan nan nan nan 18 19 nan 23 21 20 15 19 18 15 12 12 12 13 14 17 19 16 14 13 11 9 9 8 9 9 12 15 16 17 17 18 18 17 16 16
nan nan nan nan nan nan nan nan nan nan nan nan nan nan nan 23 23 22 22 21 20 18 15 18 12 14 14 15 17 20 19 17 15 12 11 11 8 9 10 11 14 15 16 17 16 15 14 14 15
nan nan nan nan nan nan nan nan nan nan nan nan nan nan 27 30 21 21 23 25 20 20 19 23 16 15 16 15 18 20 20 19 17 15 14 13 10 10 10 12 13 14 14 14 15 16 14 13 14
nan nan nan nan nan nan nan nan nan nan nan nan nan nan 29 28 25 26 23 23 20 24 20 21 20 15 16 16 18 20 21 21 20 18 15 13 12 12 12 13 14 14 14 13 14 15 14 13 13
nan nan nan nan nan nan nan nan nan nan nan nan nan nan 34 32 23 23 21 20 27 26 24 24 23 19 15 17 19 21 23 23 23 21 17 14 14 14 13 13 14 14 12 11 12 11 9 9 10
nan nan nan nan nan nan nan nan nan nan nan nan nan nan 40 29 28 24 25 23 23 25 29 21 23 23 18 19 22 22 25 25 25 23 21 17 16 15 15 14 14 13 11 10 9 8 7 8 11
nan nan nan nan nan nan nan nan nan nan nan nan nan nan nan 33 28 25 23 23 23 29 34 28 25 nan nan nan 24 23 26 26 27 25 23 21 18 16 15 14 13 11 10 11 10 9 9 11 13
nan nan nan nan nan nan nan nan nan nan nan nan nan nan 46 37 28 21 18 22 22 19 23 20 nan nan nan nan 24 25 26 27 28 25 22 nan nan nan nan nan nan 10 10 9 11 12 13 14 18
nan nan nan nan nan nan nan nan nan nan nan nan nan nan 38 37 26 18 17 18 16 18 18 21 20 20 nan nan 23 nan 25 21 20 20 nan nan nan nan nan nan 13 9 9 8 11 13 15 20 20
nan nan nan nan nan nan nan nan nan nan nan nan nan nan 30 32 24 18 20 17 19 25 18 17 20 16 18 23 nan nan nan nan 20 20 18 22 nan nan nan nan nan nan 18 12 16 17 19 19 19
nan nan nan nan nan nan nan nan nan nan nan nan nan nan 31 24 19 20 23 17 13 12 14 15 16 16 17 22 21 20 20 20 nan 19 19 21 nan nan nan nan nan 16 19 18 18 19 22 18 20
nan nan nan nan nan nan nan nan nan nan nan nan nan nan 30 25 21 22 23 24 18 12 12 13 16 18 19 20 21 17 19 17 20 20 21 nan nan nan nan nan nan nan 23 21 22 22 24 22 22
nan nan nan nan nan nan nan nan nan nan nan nan nan nan 35 30 23 25 21 24 20 19 14 11 17 22 19 18 19 20 18 20 18 20 21 21 nan 24 nan nan nan nan 28 29 27 28 28 27 25
nan nan nan nan nan nan nan nan nan nan nan nan nan nan nan nan 31 25 27 23 22 27 30 18 24 26 20 22 21 19 21 20 21 22 24 24 25 30 28 nan nan 34 34 32 36 37 32 32 29
nan nan nan nan nan nan nan nan nan nan nan nan nan nan 44 40 35 34 31 27 28 27 25 30 25 27 25 22 23 23 27 27 25 25 27 28 31 32 36 40 44 42 45 46 47 41 37 32 32
nan nan nan nan nan nan nan nan nan nan nan nan nan nan 44 36 35 37 36 34 35 34 29 29 31 26 23 27 29 31 31 27 28 27 30 35 38 40 43 45 48 48 53 57 52 47 45 38 31
nan nan nan nan nan nan nan nan nan nan nan nan nan nan nan 39 39 42 36 35 35 40 40 34 31 31 28 31 32 34 33 30 30 34 37 40 42 47 51 56 56 60 63 61 62 46 36 35 14
nan nan nan nan nan nan nan nan nan nan nan nan nan nan nan 40 38 35 35 35 31 37 38 34 33 34 31 31 32 30 30 34 36 37 41 45 49 51 54 57 59 63 62 50 38 10 4 6 14
nan nan nan nan nan nan nan nan nan nan nan nan nan nan nan nan 40 35 33 33 35 38 39 37 37 33 31 32 31 33 33 35 37 40 41 42 44 45 37 31 29 37 29 28 15 16 16 20 23
nan nan nan nan nan nan nan nan nan nan nan nan nan nan nan nan 42 36 36 39 40 42 43 41 32 32 33 39 39 39 41 37 36 38 40 43 44 36 31 nan nan nan 4 16 20 19 20 nan nan
nan nan nan nan nan nan nan nan nan nan nan nan nan nan nan nan 41 39 36 41 48 50 45 38 39 39 35 33 28 31 31 32 34 38 39 nan nan nan nan nan nan nan nan nan nan nan nan nan nan
nan nan nan nan nan nan nan nan nan nan nan nan nan nan nan 42 41 39 38 43 52 44 34 34 38 34 36 26 26 27 26 33 33 30 nan nan nan nan nan nan nan nan nan nan nan nan nan nan nan
nan nan nan nan nan nan nan nan nan nan nan nan nan nan 38 39 40 41 43 50 46 40 39 40 44 31 31 25 28 30 32 31 nan nan nan nan nan nan nan nan nan nan nan nan nan nan nan nan nan
nan nan nan nan nan nan nan nan nan nan nan nan nan nan 36 39 42 45 52 51 45 47 42 47 32 25 27 30 33 31 32 28 nan nan nan nan nan nan nan nan nan nan nan nan nan nan nan nan nan
nan nan 11 nan nan nan nan nan nan nan nan nan nan nan 39 39 42 52 56 56 51 46 37 29 36 36 34 31 33 33 30 nan nan nan nan nan nan nan nan nan nan nan nan nan nan nan nan nan nan
nan nan nan nan nan nan nan nan nan nan nan nan nan nan 40 51 59 53 53 56 57 51 37 35 37 42 39 34 35 32 26 nan nan nan nan nan nan nan nan nan nan nan nan nan nan nan nan nan nan
nan nan nan nan nan nan nan nan nan nan nan nan nan nan 42 50 51 50 54 53 54 54 40 34 39 43 37 37 34 nan nan nan nan nan nan nan nan nan nan nan nan nan nan nan nan nan nan nan nan
nan 15 nan nan nan nan nan nan nan nan nan nan nan 37 42 45 50 56 59 57 52 42 37 38 44 40 38 37 33 nan nan nan nan nan nan nan nan nan nan nan nan nan nan nan nan nan nan nan nan
nan 18 19 25 nan nan 34 nan nan nan nan nan nan 37 39 40 48 55 55 51 43 39 36 41 41 38 37 nan nan nan nan nan nan nan nan nan nan nan nan nan nan nan nan nan nan nan nan nan nan
Wind_Direction
nan nan nan nan nan nan nan nan nan nan nan nan nan 208 204 205 205 213 224 229 257 263 266 279 265 263 266 265 254 248 258 269 276 284 292 298 305 319 316 317 325 330 335 337 339 344 347 345 341
nan nan nan nan nan nan nan nan nan nan nan nan nan 207 200 nan 221 237 257 259 278 265 270 276 266 253 259 260 254 254 252 255 264 269 280 294 304 309 314 323 327 329 329 331 334 336 337 336 331
nan nan nan nan nan nan nan nan nan nan nan nan nan nan nan 223 230 244 239 280 282 273 274 268 262 258 261 261 251 253 257 256 256 266 280 285 293 300 313 317 316 317 320 324 321 323 327 330 331
nan nan nan nan nan nan nan nan nan nan nan nan nan nan 233 226 233 235 265 273 286 282 270 261 252 259 265 267 256 255 259 262 265 265 265 272 283 290 293 298 302 308 312 311 313 318 325 325 329
nan nan nan nan nan nan nan nan nan nan nan nan nan nan 226 237 233 246 276 265 275 286 269 270 252 251 264 271 260 260 262 263 265 265 266 271 274 279 287 292 297 301 303 307 310 313 318 328 332
nan nan nan nan nan nan nan nan nan nan nan nan nan nan 228 235 241 251 278 278 259 285 275 265 255 246 251 262 260 259 261 261 261 261 262 263 268 273 275 282 289 293 301 299 294 298 315 318 326
nan nan nan nan nan nan nan nan nan nan nan nan nan nan 229 238 243 255 267 285 258 286 286 262 262 246 241 253 256 256 260 261 260 261 259 257 260 265 272 281 288 292 290 290 296 301 306 316 335
nan nan nan nan nan nan nan nan nan nan nan nan nan nan nan 239 248 261 271 282 269 271 256 256 246 nan nan nan 248 252 258 260 259 257 258 261 263 267 271 278 290 284 289 284 278 290 305 325 338
nan nan nan nan nan nan nan nan nan nan nan nan nan nan 226 242 242 256 264 270 262 251 253 245 nan nan nan nan 246 249 253 255 259 260 259 nan nan nan nan nan nan 273 278 284 305 310 322 334 354
nan nan nan nan nan nan nan nan nan nan nan nan nan nan 230 245 242 245 255 252 252 246 239 231 234 237 nan nan 250 nan 250 251 255 258 nan nan nan nan nan nan 272 270 276 298 313 322 328 342 320
nan nan nan nan nan nan nan nan nan nan nan nan nan nan 233 238 240 239 233 236 241 238 224 241 230 235 242 238 nan nan nan nan 252 264 268 261 nan nan nan nan nan nan 295 276 297 301 308 292 306
nan nan nan nan nan nan nan nan nan nan nan nan nan nan 228 229 235 227 226 228 228 246 245 242 241 235 240 238 240 249 254 260 nan 274 278 268 nan nan nan nan nan 267 259 259 278 283 283 299 303
nan nan nan nan nan nan nan nan nan nan nan nan nan nan 216 204 207 215 220 225 216 221 243 253 251 241 237 240 242 248 255 265 266 272 275 nan nan nan nan nan nan nan 256 259 262 271 279 283 294
nan nan nan nan nan nan nan nan nan nan nan nan nan nan 205 207 194 208 229 231 229 220 234 265 259 239 245 240 248 248 254 266 268 264 266 275 nan 270 nan nan nan nan 259 259 260 260 265 270 277
nan nan nan nan nan nan nan nan nan nan nan nan nan nan nan nan 203 213 225 232 224 234 248 251 243 240 238 244 248 249 257 258 256 256 267 271 277 279 276 nan nan 262 259 255 254 252 253 258 263
nan nan nan nan nan nan nan nan nan nan nan nan nan nan 201 202 208 215 227 240 236 241 237 228 228 237 234 242 246 246 250 250 255 259 268 279 282 279 281 278 269 260 259 255 254 261 261 263 268
nan nan nan nan nan nan nan nan nan nan nan nan nan nan 199 200 203 216 226 237 244 244 233 228 232 240 238 241 243 246 250 255 257 264 272 273 278 280 278 278 275 273 272 273 265 265 271 271 268
nan nan nan nan nan nan nan nan nan nan nan nan nan nan nan 200 207 216 219 229 246 250 233 233 234 239 243 245 248 254 259 265 268 268 270 277 283 283 285 282 285 286 284 284 276 273 294 252 336
nan nan nan nan nan nan nan nan nan nan nan nan nan nan nan 200 204 204 216 227 243 237 231 236 240 245 245 252 257 264 278 281 279 282 284 289 288 291 295 300 298 287 298 314 269 2 3 346 331
nan nan nan nan nan nan nan nan nan nan nan nan nan nan nan nan 209 216 227 232 233 233 236 239 241 245 243 248 251 260 276 284 286 282 283 282 280 279 301 305 320 299 276 320 311 347 352 356 319
nan nan nan nan nan nan nan nan nan nan nan nan nan nan nan nan 215 217 229 231 233 245 244 239 240 245 244 248 256 270 277 282 288 288 284 276 281 283 295 nan nan nan 345 312 325 327 334 nan nan
nan nan nan nan nan nan nan nan nan nan nan nan nan nan nan nan 209 216 230 232 238 238 240 236 243 248 245 254 277 294 288 287 280 283 287 nan nan nan nan nan nan nan nan nan nan nan nan nan nan
nan nan nan nan nan nan nan nan nan nan nan nan nan nan nan 207 209 219 228 235 239 247 240 233 241 250 250 271 291 289 283 282 282 286 nan nan nan nan nan nan nan nan nan nan nan nan nan nan nan
nan nan nan nan nan nan nan nan nan nan nan nan nan nan 205 205 207 219 230 235 246 252 251 237 251 246 284 291 282 278 281 281 nan nan nan nan nan nan nan nan nan nan nan nan nan nan nan nan nan
nan nan nan nan nan nan nan nan nan nan nan nan nan nan 207 204 206 223 232 234 239 249 249 258 276 283 275 274 273 274 276 285 nan nan nan nan nan nan nan nan nan nan nan nan nan nan nan nan nan
nan nan 174 nan nan nan nan nan nan nan nan nan nan nan 208 200 207 225 233 237 239 247 258 272 271 267 269 265 265 269 281 nan nan nan nan nan nan nan nan nan nan nan nan nan nan nan nan nan nan
nan nan nan nan nan nan nan nan nan nan nan nan nan nan 207 201 215 222 231 238 242 248 257 259 260 256 260 266 265 270 269 nan nan nan nan nan nan nan nan nan nan nan nan nan nan nan nan nan nan
nan nan nan nan nan nan nan nan nan nan nan nan nan nan 212 204 215 222 230 236 240 246 251 253 254 255 259 261 266 nan nan nan nan nan nan nan nan nan nan nan nan nan nan nan nan nan nan nan nan
nan 231 nan nan nan nan nan nan nan nan nan nan nan 205 213 212 214 225 229 231 240 243 246 245 250 253 257 259 266 nan nan nan nan nan nan nan nan nan nan nan nan nan nan nan nan nan nan nan nan
nan 245 245 222 nan nan 164 nan nan nan nan nan nan 206 215 214 220 230 232 232 237 240 243 248 252 253 254 nan nan nan nan nan nan nan nan nan nan nan nan nan nan nan nan nan nan nan nan nan nan